Location: Poprad
(49.0500°N, 20.3000°E)
Time: 01:34:24
(UTC+02:00)

DIWATA 2B (PO-101) - Visible Passes

Search period start: 24 April 2024 00:00
Search period end: 04 May 2024 00:00
Orbit: 576 x 588 km, 98.1° (Epoch: 23 April)

Date Brightness Start Highest point End Pass type
(mag) Time Alt. Az. Time Alt. Az. Time Alt. Az.
24 Apr ? 02:13:32 10° ENE 02:14:14 10° NE 02:14:55 10° NE visible
24 Apr ? 03:44:40 10° SSE 03:48:49 75° ENE 03:52:59 10° N visible
25 Apr ? 02:18:23 10° ENE 02:19:50 12° NE 02:21:16 10° NE visible
25 Apr ? 03:50:19 10° SSE 03:54:28 85° ENE 03:58:40 10° NNW visible
26 Apr ? 02:23:31 10° E 02:25:24 13° ENE 02:27:17 10° NNE visible
26 Apr ? 03:55:58 10° SSE 04:00:07 85° WSW 04:04:19 10° NNW visible
27 Apr ? 02:28:44 10° E 02:30:59 14° ENE 02:33:13 10° NNE visible
27 Apr ? 04:01:37 10° S 04:05:46 75° WSW 04:09:56 10° NNW visible
28 Apr ? 02:34:01 10° E 02:36:33 16° ENE 02:39:05 10° NNE visible
28 Apr ? 04:07:17 10° S 04:11:25 66° WSW 04:15:34 10° NNW visible
29 Apr ? 02:39:20 10° ESE 02:42:07 18° ENE 02:44:54 10° NNE visible
29 Apr ? 04:12:58 10° S 04:17:03 57° WSW 04:21:10 10° NNW visible
30 Apr ? 02:44:41 10° ESE 02:47:41 20° ENE 02:50:41 10° NNE visible
30 Apr ? 04:18:39 10° S 04:22:41 50° W 04:26:45 10° NNW visible
01 May ? 02:50:04 10° ESE 02:53:14 22° ENE 02:56:25 10° NNE visible
01 May ? 04:24:21 10° S 04:28:19 44° W 04:32:18 10° NNW visible
02 May ? 02:55:27 10° ESE 02:58:47 24° ENE 03:02:08 10° N visible
02 May ? 04:30:03 10° SSW 04:33:57 39° W 04:37:52 10° NNW visible
03 May ? 03:00:52 10° ESE 03:04:21 27° ENE 03:07:50 10° N visible
03 May ? 04:35:47 10° SSW 04:39:34 34° W 04:43:22 10° NNW visible
